Home > Weather > Scranton > Past weeks

Flag for U.S.A. Weather for the Past 2 Weeks in Scranton, Pennsylvania, U.S.A.

Now
18 °F

Mostly cloudy.


Feels Like: 9 °F
Forecast: 1 / 19 °F
Wind: 7 mph from Southwest

Location: Barre - Scranton - Wilkes-Barre / Scranton International Airport

Current Time: Feb 12, 2016 at 7:54:06 PM

Latest Report: Feb 12, 2016 at 6:54 PM


Visibility: 10 mi

Pressure: 29.95 "Hg

Humidity: 59%

Dew point: 6 °F

Location of ScrantonLocation

Historic Weather in Scranton — Graph

°F

Scranton Temperature Yesterday

Maximum temperature yesterday: 21 °F (at 12:01 AM)
Minimum temperature yesterday: 12 °F (at 5:54 AM)
Average temperature yesterday: 16 °F

High & Low Weather Summary for the Past Weeks

 TemperatureHumidityPressure
High56 °F (Feb 3, 2:54 PM)96% (Feb 4, 12:54 AM)30.39 "Hg (Feb 4, 12:54 AM)
Low9 °F (Feb 12, 3:54 AM)26% (Jan 30, 3:54 PM)29.48 "Hg (Jan 29, 5:54 AM)
Average34 °F63%29.93 "Hg
* Reported Jan 28 5:54 PM — Feb 12 5:54 PM, Scranton, Weather by CustomWeather, © 2016

Note: Actual official high and low records may vary slightly from our data, if they occured in-between our weather recording intervals... More about our weather records

Advertising

Scranton Weather History for the Previous 24 Hours

 ConditionsComfort  
Time TempWeatherWind HumidityBarometerVisibility
5:54 PM
Fri, Feb 12
18 °FOvercast.8 mph54%29.96 "Hg10 mi
4:54 PM19 °FMore clouds than sun.12 mph54%29.98 "Hg10 mi
3:54 PM19 °FMostly cloudy.10 mph57%30.00 "Hg9 mi
2:54 PM19 °FMostly cloudy.10 mph52%30.01 "Hg10 mi
1:54 PM19 °FOvercast.13 mph52%30.05 "Hg10 mi
12:54 PM18 °FOvercast.10 mph54%30.08 "Hg10 mi
11:54 AM17 °FPartly sunny.12 mph51%30.13 "Hg10 mi
10:54 AM16 °FPassing clouds.13 mph56%30.16 "Hg10 mi
9:54 AM14 °FSunny.6 mph61%30.17 "Hg10 mi
8:54 AM13 °FSunny.8 mph59%30.20 "Hg10 mi
7:54 AM10 °FSunny.5 mph67%30.21 "Hg10 mi
6:54 AM9 °FClear.5 mph70%30.21 "Hg10 mi
5:54 AM10 °FPassing clouds.6 mph64%30.22 "Hg10 mi
4:54 AM9 °FClear.6 mph61%30.22 "Hg10 mi
3:54 AM9 °FClear.3 mph58%30.21 "Hg10 mi
2:54 AM10 °FPassing clouds.3 mph58%30.22 "Hg10 mi
1:54 AM11 °FClear.7 mph56%30.22 "Hg10 mi
12:54 AM11 °FPassing clouds.6 mph56%30.22 "Hg10 mi
11:54 PM
Thu, Feb 11
12 °FPassing clouds.8 mph53%30.20 "Hg10 mi
10:54 PM13 °FPassing clouds.8 mph54%30.19 "Hg10 mi
9:54 PM14 °FOvercast.20 mph51%30.17 "Hg10 mi
8:54 PM14 °FPassing clouds.9 mph51%30.15 "Hg10 mi
7:54 PM14 °FClear.12 mph49%30.13 "Hg10 mi
Weather by CustomWeather, © 2016

See weather overviewHow to use our weather pages